| time (UTC) | temp F | wind direction | speed MPH | gust MPH | rain 1hr in | rain 24hr in | rain mn in | humidity % | barometer mb |
| 20260505022546 | 56 | 22 | 0.0 | 2.0 | 0.00 | 0.00 | 0.00 | 85 | 1013.5 |
| 20260505022043 | 56 | 321 | 0.0 | 2.0 | 0.00 | 0.00 | 0.00 | 84 | 1013.5 |
| 20260505021551 | 56 | 0 | 0.0 | 3.0 | 0.00 | 0.00 | 0.00 | 85 | 1013.5 |
| 20260505021044 | 56 | 0 | 0.0 | 3.0 | 0.00 | 0.00 | 0.00 | 84 | 1013.5 |
| 20260505020544 | 56 | 201 | 1.0 | 4.0 | 0.00 | 0.00 | 0.00 | 84 | 1013.7 |
| 20260505020049 | 56 | 242 | 0.0 | 6.0 | 0.00 | 0.00 | 0.00 | 84 | 1013.7 |
| 20260505015541 | 56 | 186 | 1.0 | 6.0 | 0.00 | 0.00 | 0.00 | 84 | 1013.6 |
| 20260505015045 | 56 | 189 | 1.0 | 3.0 | 0.00 | 0.00 | 0.00 | 84 | 1013.6 |
| 20260505014549 | 57 | 152 | 0.0 | 3.0 | 0.00 | 0.00 | 0.00 | 84 | 1013.7 |
| 20260505014045 | 57 | 0 | 1.0 | 3.0 | 0.00 | 0.00 | 0.00 | 84 | 1013.8 |
| 20260505013540 | 57 | 303 | 0.0 | 4.0 | 0.00 | 0.00 | 0.00 | 84 | 1013.8 |
| 20260505013047 | 57 | 207 | 0.0 | 4.0 | 0.00 | 0.00 | 0.00 | 83 | 1013.8 |
| 20260505012544 | 57 | 188 | 0.0 | 4.0 | 0.00 | 0.00 | 0.00 | 83 | 1013.8 |
| 20260505012040 | 57 | 198 | 1.0 | 4.0 | 0.00 | 0.00 | 0.00 | 83 | 1013.8 |
| 20260505011605 | 57 | 251 | 0.0 | 4.0 | 0.00 | 0.00 | 0.00 | 83 | 1013.8 |
| 20260505011041 | 57 | 254 | 1.0 | 4.0 | 0.00 | 0.00 | 0.00 | 83 | 1013.9 |
| 20260505010540 | 57 | 236 | 0.0 | 5.0 | 0.00 | 0.00 | 0.00 | 83 | 1013.9 |
| 20260505010049 | 57 | 266 | 0.0 | 6.0 | 0.00 | 0.00 | 0.00 | 83 | 1013.8 |
| 20260505005540 | 57 | 0 | 1.0 | 6.0 | 0.00 | 0.00 | 0.00 | 83 | 1013.8 |
| 20260505005044 | 57 | 234 | 0.0 | 5.0 | 0.00 | 0.00 | 0.00 | 83 | 1013.9 |
| 20260505004547 | 57 | 225 | 1.0 | 4.0 | 0.00 | 0.00 | 0.00 | 83 | 1013.9 |
| 20260505004044 | 57 | 176 | 1.0 | 4.0 | 0.00 | 0.00 | 0.00 | 82 | 1013.9 |
| 20260505003547 | 57 | 315 | 1.0 | 5.0 | 0.00 | 0.00 | 0.00 | 83 | 1013.8 |
| 20260505003053 | 57 | 188 | 1.0 | 5.0 | 0.00 | 0.00 | 0.00 | 83 | 1013.9 |
| 20260505002544 | 58 | 159 | 0.0 | 4.0 | 0.00 | 0.00 | 0.00 | 82 | 1014.0 |
| 20260505002044 | 58 | 219 | 1.0 | 4.0 | 0.00 | 0.00 | 0.00 | 82 | 1014.1 |
| 20260505001558 | 58 | 272 | 1.0 | 4.0 | 0.00 | 0.00 | 0.00 | 82 | 1013.9 |
| 20260505001044 | 58 | 221 | 1.0 | 5.0 | 0.00 | 0.00 | 0.00 | 81 | 1014.0 |
| 20260505000544 | 58 | 234 | 1.0 | 5.0 | 0.00 | 0.00 | 0.00 | 81 | 1013.9 |
| 20260505000104 | 58 | 270 | 1.0 | 5.0 | 0.00 | 0.00 | 0.00 | 81 | 1014.1 |
| 20260504235543 | 58 | 273 | 1.0 | 5.0 | 0.00 | 0.00 | 0.00 | 81 | 1014.0 |
| 20260504235044 | 58 | 199 | 1.0 | 4.0 | 0.00 | 0.00 | 0.00 | 81 | 1014.1 |
| 20260504234555 | 59 | 329 | 1.0 | 5.0 | 0.00 | 0.00 | 0.00 | 80 | 1014.0 |
| 20260504234040 | 59 | 165 | 1.0 | 5.0 | 0.00 | 0.00 | 0.00 | 80 | 1014.0 |
| 20260504233544 | 59 | 223 | 1.0 | 5.0 | 0.00 | 0.00 | 0.00 | 80 | 1014.1 |
| 20260504233103 | 59 | 297 | 1.0 | 5.0 | 0.00 | 0.00 | 0.00 | 79 | 1014.0 |
| 20260504232544 | 59 | 285 | 1.0 | 4.0 | 0.00 | 0.00 | 0.00 | 79 | 1014.0 |
| 20260504232040 | 59 | 232 | 1.0 | 4.0 | 0.00 | 0.00 | 0.00 | 79 | 1013.9 |
| 20260504231549 | 59 | 232 | 1.0 | 5.0 | 0.00 | 0.00 | 0.00 | 79 | 1013.8 |
| 20260504231043 | 60 | 296 | 1.0 | 6.0 | 0.00 | 0.00 | 0.00 | 78 | 1014.0 |
| 20260504230541 | 60 | 195 | 1.0 | 6.0 | 0.00 | 0.00 | 0.00 | 79 | 1014.1 |
| 20260504230053 | 60 | 0 | 1.0 | 5.0 | 0.00 | 0.00 | 0.00 | 78 | 1014.1 |
| 20260504225547 | 60 | 227 | 1.0 | 6.0 | 0.00 | 0.00 | 0.00 | 78 | 1014.1 |
| 20260504225044 | 60 | 200 | 2.0 | 6.0 | 0.00 | 0.00 | 0.00 | 78 | 1014.2 |
| 20260504224552 | 60 | 124 | 1.0 | 4.0 | 0.00 | 0.00 | 0.00 | 78 | 1014.2 |
| 20260504224040 | 61 | 174 | 1.0 | 4.0 | 0.00 | 0.00 | 0.00 | 78 | 1014.2 |
| 20260504223540 | 61 | 0 | 2.0 | 4.0 | 0.00 | 0.00 | 0.00 | 78 | 1014.2 |
| 20260504223050 | 61 | 271 | 1.0 | 5.0 | 0.00 | 0.00 | 0.00 | 77 | 1014.1 |
| 20260504222546 | 61 | 221 | 1.0 | 5.0 | 0.00 | 0.00 | 0.00 | 77 | 1014.2 |
| 20260504222042 | 61 | 88 | 1.0 | 5.0 | 0.00 | 0.00 | 0.00 | 78 | 1014.2 |
| 20260504221546 | 61 | 231 | 1.0 | 4.0 | 0.00 | 0.00 | 0.00 | 77 | 1014.1 |
| 20260504221044 | 62 | 240 | 2.0 | 7.0 | 0.00 | 0.00 | 0.00 | 76 | 1014.1 |
| 20260504220544 | 62 | 221 | 1.0 | 7.0 | 0.00 | 0.00 | 0.00 | 77 | 1014.1 |
| 20260504220054 | 62 | 174 | 2.0 | 6.0 | 0.00 | 0.00 | 0.00 | 77 | 1014.1 |
| 20260504215544 | 62 | 223 | 2.0 | 5.0 | 0.00 | 0.00 | 0.00 | 76 | 1014.0 |
| 20260504215043 | 62 | 229 | 1.0 | 5.0 | 0.00 | 0.00 | 0.00 | 75 | 1014.1 |
| 20260504214552 | 62 | 219 | 1.0 | 5.0 | 0.00 | 0.00 | 0.00 | 77 | 1014.1 |
| 20260504214043 | 62 | 298 | 2.0 | 5.0 | 0.00 | 0.00 | 0.00 | 76 | 1014.2 |
| 20260504213543 | 62 | 248 | 2.0 | 5.0 | 0.00 | 0.00 | 0.00 | 76 | 1014.1 |
| 20260504213052 | 62 | 188 | 1.0 | 5.0 | 0.00 | 0.00 | 0.00 | 77 | 1014.1 |
| 20260504212544 | 62 | 205 | 1.0 | 6.0 | 0.00 | 0.00 | 0.00 | 77 | 1014.1 |
| 20260504212043 | 62 | 303 | 1.0 | 6.0 | 0.00 | 0.00 | 0.00 | 78 | 1014.2 |
| 20260504211552 | 61 | 244 | 2.0 | 5.0 | 0.00 | 0.00 | 0.00 | 78 | 1014.2 |
| 20260504211043 | 61 | 15 | 1.0 | 5.0 | 0.00 | 0.00 | 0.00 | 78 | 1014.1 |
| 20260504210544 | 61 | 286 | 1.0 | 5.0 | 0.00 | 0.00 | 0.00 | 78 | 1014.2 |
| 20260504210052 | 61 | 225 | 1.0 | 4.0 | 0.00 | 0.00 | 0.00 | 78 | 1014.4 |
| 20260504205544 | 61 | 233 | 1.0 | 4.0 | 0.00 | 0.00 | 0.00 | 79 | 1014.4 |
| 20260504205045 | 60 | 262 | 1.0 | 4.0 | 0.00 | 0.00 | 0.00 | 79 | 1014.4 |
| 20260504204551 | 60 | 228 | 1.0 | 3.0 | 0.00 | 0.00 | 0.00 | 79 | 1014.5 |
| 20260504204044 | 60 | 306 | 1.0 | 4.0 | 0.00 | 0.00 | 0.00 | 79 | 1014.5 |
| 20260504203544 | 60 | 51 | 1.0 | 5.0 | 0.00 | 0.00 | 0.00 | 80 | 1014.5 |
| 20260504203056 | 60 | 254 | 1.0 | 7.0 | 0.00 | 0.00 | 0.00 | 80 | 1014.5 |
| 20260504202544 | 60 | 281 | 1.0 | 7.0 | 0.00 | 0.00 | 0.00 | 80 | 1014.6 |
| 20260504202046 | 60 | 192 | 1.0 | 5.0 | 0.00 | 0.00 | 0.00 | 80 | 1014.6 |
| 20260504201549 | 60 | 304 | 2.0 | 5.0 | 0.00 | 0.00 | 0.00 | 80 | 1014.7 |
| 20260504201043 | 60 | 202 | 1.0 | 5.0 | 0.00 | 0.00 | 0.00 | 80 | 1014.7 |
| 20260504200543 | 60 | 314 | 1.0 | 5.0 | 0.00 | 0.00 | 0.00 | 80 | 1014.7 |
| 20260504200046 | 60 | 175 | 1.0 | 6.0 | 0.00 | 0.00 | 0.00 | 80 | 1014.7 |
| 20260504195543 | 60 | 297 | 1.0 | 6.0 | 0.00 | 0.00 | 0.00 | 80 | 1014.7 |
| 20260504195044 | 60 | 294 | 1.0 | 6.0 | 0.00 | 0.00 | 0.00 | 80 | 1014.8 |
| 20260504194601 | 60 | 217 | 1.0 | 3.0 | 0.00 | 0.00 | 0.00 | 80 | 1014.7 |
| 20260504194043 | 60 | 233 | 1.0 | 4.0 | 0.00 | 0.00 | 0.00 | 81 | 1014.6 |
| 20260504193544 | 60 | 275 | 1.0 | 4.0 | 0.00 | 0.00 | 0.00 | 81 | 1014.5 |
| 20260504193049 | 60 | 202 | 1.0 | 3.0 | 0.00 | 0.00 | 0.00 | 81 | 1014.7 |
| 20260504192545 | 59 | 239 | 1.0 | 4.0 | 0.00 | 0.00 | 0.00 | 81 | 1014.7 |
| 20260504192043 | 59 | 223 | 1.0 | 4.0 | 0.00 | 0.00 | 0.00 | 82 | 1014.7 |
| 20260504191607 | 59 | 175 | 1.0 | 4.0 | 0.00 | 0.00 | 0.00 | 82 | 1014.6 |
| 20260504191044 | 59 | 239 | 0.0 | 3.0 | 0.00 | 0.00 | 0.00 | 82 | 1014.7 |
| 20260504190547 | 59 | 274 | 1.0 | 4.0 | 0.00 | 0.00 | 0.00 | 82 | 1014.6 |
| 20260504190052 | 59 | 136 | 0.0 | 4.0 | 0.00 | 0.00 | 0.00 | 82 | 1014.6 |
| 20260504185543 | 58 | 171 | 1.0 | 3.0 | 0.00 | 0.01 | 0.00 | 82 | 1014.6 |
| 20260504185044 | 58 | 270 | 1.0 | 3.0 | 0.00 | 0.01 | 0.00 | 82 | 1014.6 |
| 20260504184549 | 58 | 0 | 0.0 | 3.0 | 0.00 | 0.01 | 0.00 | 82 | 1014.6 |
| 20260504184043 | 58 | 223 | 1.0 | 3.0 | 0.00 | 0.01 | 0.00 | 82 | 1014.6 |
| 20260504183540 | 58 | 217 | 0.0 | 3.0 | 0.00 | 0.01 | 0.00 | 82 | 1014.7 |
| 20260504183050 | 58 | 177 | 0.0 | 3.0 | 0.00 | 0.01 | 0.00 | 83 | 1014.6 |
| 20260504182541 | 58 | 214 | 1.0 | 3.0 | 0.00 | 0.01 | 0.00 | 82 | 1014.6 |
| 20260504182044 | 58 | 259 | 0.0 | 3.0 | 0.00 | 0.01 | 0.00 | 83 | 1014.4 |
| 20260504181558 | 58 | 0 | 1.0 | 3.0 | 0.00 | 0.01 | 0.00 | 82 | 1014.4 |
| 20260504181044 | 58 | 315 | 1.0 | 3.0 | 0.00 | 0.01 | 0.00 | 82 | 1014.3 |
| 20260504180543 | 58 | 169 | 0.0 | 2.0 | 0.00 | 0.01 | 0.00 | 82 | 1014.3 |
| 20260504180051 | 58 | 95 | 1.0 | 3.0 | 0.00 | 0.01 | 0.00 | 82 | 1014.4 |
| 20260504175543 | 57 | 0 | 1.0 | 3.0 | 0.00 | 0.01 | 0.00 | 82 | 1014.3 |
| 20260504175040 | 57 | 229 | 0.0 | 3.0 | 0.00 | 0.01 | 0.00 | 83 | 1014.2 |
| 20260504174556 | 57 | 219 | 0.0 | 3.0 | 0.00 | 0.01 | 0.00 | 83 | 1014.2 |
| 20260504174041 | 57 | 310 | 1.0 | 2.0 | 0.00 | 0.01 | 0.00 | 83 | 1014.3 |
| 20260504173541 | 57 | 242 | 0.0 | 2.0 | 0.00 | 0.01 | 0.00 | 83 | 1014.2 |
| 20260504173056 | 57 | 293 | 0.0 | 4.0 | 0.00 | 0.01 | 0.00 | 83 | 1014.3 |
| 20260504172547 | 57 | 242 | 0.0 | 4.0 | 0.00 | 0.01 | 0.00 | 84 | 1014.3 |
| 20260504172045 | 57 | 163 | 1.0 | 4.0 | 0.00 | 0.01 | 0.00 | 84 | 1014.3 |
| 20260504171554 | 57 | 229 | 0.0 | 2.0 | 0.00 | 0.01 | 0.00 | 84 | 1014.3 |
| 20260504171041 | 57 | 0 | 0.0 | 3.0 | 0.00 | 0.01 | 0.00 | 84 | 1014.2 |
| 20260504170541 | 56 | 0 | 1.0 | 3.0 | 0.00 | 0.01 | 0.00 | 84 | 1014.3 |
| 20260504151044 | 55 | 0 | 0.0 | 2.0 | 0.00 | 0.01 | 0.00 | 87 | 1014.0 |
| 20260504150545 | 54 | 0 | 0.0 | 2.0 | 0.00 | 0.01 | 0.00 | 88 | 1013.9 |
| 20260504141040 | 54 | 0 | 0.0 | 1.0 | 0.00 | 0.01 | 0.00 | 90 | 1013.5 |
| 20260504140544 | 53 | 0 | 0.0 | 1.0 | 0.00 | 0.01 | 0.00 | 90 | 1013.5 |
| 20260504130544 | 53 | 0 | 0.0 | 0.0 | 0.00 | 0.01 | 0.00 | 91 | 1013.0 |
| 20260504110540 | 53 | 211 | 0.0 | 5.0 | 0.00 | 0.01 | 0.00 | 89 | 1012.8 |
| 20260504100547 | 54 | 0 | 0.0 | 0.0 | 0.00 | 0.01 | 0.00 | 89 | 1012.6 |
| 20260504090105 | 54 | 0 | 0.0 | 1.0 | 0.00 | 0.01 | 0.00 | 89 | 1012.4 |
| 20260504081554 | 54 | 171 | 0.0 | 2.0 | 0.00 | 0.01 | 0.00 | 88 | 1012.3 |
| 20260504081042 | 54 | 0 | 0.0 | 2.0 | 0.00 | 0.01 | 0.00 | 88 | 1012.3 |
| 20260504080542 | 54 | 0 | 0.0 | 2.0 | 0.00 | 0.01 | 0.00 | 88 | 1012.4 |
| 20260504050542 | 58 | 190 | 3.0 | 6.0 | 0.00 | 0.01 | 0.01 | 83 | 1010.7 |
| 20260504045546 | 59 | 167 | 3.0 | 5.0 | 0.00 | 0.01 | 0.01 | 82 | 1010.4 |
| 20260504045042 | 59 | 191 | 2.0 | 5.0 | 0.00 | 0.01 | 0.01 | 81 | 1010.4 |
| 20260504044557 | 59 | 166 | 1.0 | 5.0 | 0.00 | 0.01 | 0.01 | 81 | 1010.3 |
| 20260504044042 | 59 | 200 | 2.0 | 5.0 | 0.00 | 0.01 | 0.01 | 81 | 1010.2 |
| 20260504043542 | 59 | 180 | 1.0 | 5.0 | 0.00 | 0.01 | 0.01 | 80 | 1010.2 |
| 20260504043053 | 60 | 157 | 1.0 | 5.0 | 0.00 | 0.01 | 0.01 | 80 | 1010.1 |
| 20260504042547 | 60 | 178 | 2.0 | 4.0 | 0.00 | 0.01 | 0.01 | 79 | 1010.0 |
| 20260504042042 | 60 | 194 | 2.0 | 5.0 | 0.00 | 0.01 | 0.01 | 79 | 1010.1 |
| 20260504041545 | 60 | 154 | 2.0 | 5.0 | 0.00 | 0.01 | 0.01 | 79 | 1010.0 |
| 20260504041042 | 60 | 214 | 2.0 | 3.0 | 0.00 | 0.01 | 0.01 | 80 | 1009.9 |
| 20260504040542 | 60 | 178 | 1.0 | 3.0 | 0.00 | 0.01 | 0.01 | 78 | 1009.8 |
| 20260504040112 | 61 | 161 | 2.0 | 4.0 | 0.00 | 0.01 | 0.01 | 78 | 1009.6 |
| 20260504035545 | 61 | 216 | 2.0 | 5.0 | 0.00 | 0.01 | 0.01 | 77 | 1009.5 |
| 20260504035041 | 61 | 182 | 2.0 | 5.0 | 0.00 | 0.01 | 0.01 | 76 | 1009.3 |
| 20260504034607 | 62 | 176 | 2.0 | 5.0 | 0.00 | 0.01 | 0.01 | 76 | 1009.3 |
| 20260504034043 | 62 | 202 | 2.0 | 5.0 | 0.00 | 0.01 | 0.01 | 75 | 1009.2 |
| 20260504033543 | 62 | 177 | 2.0 | 5.0 | 0.00 | 0.01 | 0.01 | 75 | 1009.0 |
| 20260504033055 | 63 | 212 | 2.0 | 5.0 | 0.00 | 0.01 | 0.01 | 74 | 1009.0 |
| 20260504032543 | 63 | 183 | 2.0 | 4.0 | 0.00 | 0.01 | 0.01 | 73 | 1008.9 |
| 20260504032041 | 64 | 169 | 2.0 | 4.0 | 0.00 | 0.01 | 0.01 | 73 | 1008.8 |
| 20260504031556 | 64 | 221 | 2.0 | 4.0 | 0.00 | 0.01 | 0.01 | 73 | 1008.7 |
| 20260504031042 | 64 | 182 | 2.0 | 4.0 | 0.00 | 0.01 | 0.01 | 72 | 1008.6 |
| 20260504030542 | 65 | 184 | 2.0 | 5.0 | 0.00 | 0.01 | 0.01 | 71 | 1008.5 |
| 20260504025543 | 66 | 211 | 2.0 | 5.0 | 0.00 | 0.01 | 0.01 | 69 | 1008.5 |
| 20260504025042 | 66 | 169 | 1.0 | 4.0 | 0.00 | 0.01 | 0.01 | 68 | 1008.4 |
| 20260504024555 | 66 | 223 | 1.0 | 4.0 | 0.00 | 0.01 | 0.01 | 68 | 1008.2 |
| 20260504024043 | 67 | 182 | 2.0 | 4.0 | 0.00 | 0.01 | 0.01 | 67 | 1008.2 |
| 20260504023544 | 67 | 196 | 1.0 | 3.0 | 0.00 | 0.01 | 0.01 | 67 | 1008.1 |
| 20260504023050 | 68 | 164 | 0.0 | 2.0 | 0.00 | 0.01 | 0.01 | 66 | 1008.0 |